Regional Weather Roundup
Issued by NWS Wakefield, VA

Home | Current Version | Previous Version | Text Only | Print | Product List | Glossary On
Versions: 1 2 3 4 5 6 7 8 9 10 11 12 13 14 15 16 17 18 19 20 21 22 23 24 25 26 27 28 29 30 31 32 33 34 35 36 37 38 39 40 41 42 43 44 45 46 47 48 49 50
000
ASUS41 KAKQ 040614
RWRAKQ

REGIONAL WEATHER ROUNDUP
NATIONAL WEATHER SERVICE WAKEFIELD VA
200 AM EDT MON MAY 04 2015

Note: "fair" indicates few or no clouds below 12,000 feet with no
significant weather and/or obstructions to visibility. * = Denotes
station may not report precipitation (e.g., rain,snow,etc.),
thunder or fog.

VAZ042-051-052>054-056-040700-
NORTHERN VIRGINIA

CITY           SKY/WX    TMP DP  RH WIND       PRES   REMARKS
WASH NATIONAL  PTCLDY    65  48  54 S3        30.18S
DULLES         PTCLDY    57  45  64 S3        30.17S
FORT BELVOIR   CLEAR     51  49  92 CALM      30.18R
QUANTICO       CLEAR     56  49  77 W5        30.19S
FREDERICKSBRG* CLEAR     55  50  85 CALM      30.18S
STAFFORD*      CLEAR     48  50 100 CALM      30.22S
WARRENTON      CLEAR     48  47  98 CALM      30.18S
CULPEPER*      NOT AVBL
MANASSAS*      CLEAR     50  48  93 CALM      30.18S
LEESBURG*      CLEAR     54  50  87 SW3       30.18S
WINCHESTER     MOCLDY    57  39  51 SW3       30.17S
FRONT ROYAL*   FAIR      55  45  67 S5        30.17S
LURAY*         FAIR      50  46  87 CALM      30.20R
$$

VAZ048-049-060>072-079>083-040700-
CENTRAL AND SOUTH CENTRAL VIRGINIA

CITY           SKY/WX    TMP DP  RH WIND       PRES   REMARKS
RICHMOND       PTCLDY    57  47  69 CALM      30.20S
CHESTERFIELD*  FAIR      54  39  58 CALM      30.22R
PETERSBURG*    CLEAR     48  47  96 CALM      30.21S
HANOVER        CLEAR     52  48  86 CALM      30.21S
TAPPAHANNOCK*  CLEAR     51  45  80 CALM      30.20S
QUINTON*       FAIR      52  49  90 S5        30.20S
CHARLOTTSVILLE CLEAR     59  44  57 W3        30.19S
GORDONSVILLE*  MOCLDY    48  46  93 SW3       30.19R
ORANGE*        CLEAR     52  46  82 CALM      30.21S
LOUISA*        CLEAR     50  46  87 SW3       30.19R
BUMPASS*       FAIR      51  46  82 CALM      30.19S
FARMVILLE*     CLEAR     52  52  99 CALM      30.20S
CREWE*         FAIR      51  48  89 CALM      30.21R
FORT PICKETT*  FAIR      56  47  72 S5        30.21S
CHASE CITY*    FAIR      57  52  84 S3        30.22R
CLARKSVILLE*   FAIR      55  50  82 S7        30.22R
SOUTH HILL*    CLEAR     54  48  80 CALM      30.28S
LAWRENCEVILLE* FAIR      56  48  76 S5        30.23R
EMPORIA*       CLEAR     52  46  82 CALM      30.24S
$$

VAZ088>098-040700-
SOUTHEAST VIRGINIA

CITY           SKY/WX    TMP DP  RH WIND       PRES   REMARKS
NORFOLK        CLEAR     61  48  62 SW12      30.22R
VIRGINIA BEACH PTCLDY    62  48  60 SW8       30.22R
NORFOLK NAVAL  CLEAR     67  48  50 SW10      30.23R
WEST POINT*    CLEAR     52  48  87 CALM      30.22R
SALUDA*        FAIR      60  47  63 SW5       30.20R
NEWPORT NEWS   CLEAR     61  48  62 SW8       30.22R
LANGLEY AFB    CLEAR     62  50  64 SW8       30.21R
FORT EUSTIS    CLEAR     61  50  69 S5        30.20R
WILLIAMSBURG*  CLEAR     57  55  94 S9        30.23R
HR EXEC AP*    FAIR      61  48  63 SW7       30.24S
FRANKLIN*      CLEAR     59  47  62 SW5       30.24R
WAKEFIELD      CLEAR     60  48  64 S5        30.22R
$$

VAZ020-022-025-037-045-040700-
WEST CENTRAL AND SOUTHWEST VIRGINIA

CITY           SKY/WX    TMP DP  RH WIND       PRES   REMARKS
STAUNTON*      PTCLDY    47  43  85 CALM      30.23S
WAYNESBORO*    FAIR      53  41  63 CALM      30.21S
HOT SPRINGS VA CLEAR     58  42  53 SW13G18   30.26S
LYNCHBURG      CLEAR     51  45  79 CALM      30.23R
DANVILLE       CLEAR     52  48  86 SW3       30.22R
SOUTH BOSTON*  FAIR      51  49  94 CALM      30.21S
MARTINSVILLE   PTCLDY    49  49 100 CALM      30.25S
ROANOKE        PTCLDY    54  46  74 CALM      30.23S
BLACKSBURG     CLEAR     49  44  81 E3        30.27S
DUBLIN*        PTCLDY    53  49  86 CALM      30.25S
MARION*        CLEAR     53  46  77 CALM      30.27S
HILLSVILLE*    CLEAR     60  46  61 S7        30.25S
RICHLANDS*     FAIR      60  32  35 CALM      30.23S
WISE*          CLEAR     55  36  47 SW5       30.23S
ABINGDON*      CLEAR     53  45  74 CALM      30.23S
$$

MDZ021>025-VAZ099-100-040700-
SOUTHERN MARYLAND AND THE DELMARVA PENINSULA

CITY           SKY/WX    TMP DP  RH WIND       PRES   REMARKS
PATUXENT RIVER CLEAR     62  46  55 SW9       30.18R
BAY BRIDGE APT   N/A    N/A N/A N/A S6        30.18R
LEONARDTOWN    CLEAR     59  43  55 SW3       30.19S
DOVER          CLEAR     59  49  70 S5        30.14S
GEORGETOWN     CLEAR     57  47  69 MISG      30.19S
EASTON         CLEAR     59  49  68 CALM      30.21S
CAMBRIDGE      CLEAR     59  50  72 CALM      30.18S
SALISBURY      CLEAR     50  47  89 CALM      30.19S
OCEAN CITY     CLEAR     49  48  97 SW3       30.19S
WALLOPS ISLAND CLEAR     56  49  77 SW5       30.20R
ACCOMACK*      CLEAR     55  52  88 SW5       30.20S
$$

NCZ012>017-030>032-040700-
NORTH CENTRAL AND EASTERN NORTH CAROLINA

CITY           SKY/WX    TMP DP  RH WIND       PRES   REMARKS
ROANOKE RAPIDS FAIR      54  48  82 CALM      30.24R
RALEIGH        PTCLDY    59  50  72 SW8       30.25R
ELIZABETH CITY CLEAR     56  49  77 SW8       30.23S
AHOSKIE*         N/A     54  48  81 CALM      30.24S
EDENTON*       CLEAR     62  51  66 SW3       30.25R
CURRITUCK*     CLEAR     62  47  56 SW3       30.24S
KILL DEVIL HLS CLEAR     61  51  69 SW5       30.23S
MANTEO         CLEAR     62  51  66 SW7       30.25S
CAPE HATTERAS  PTCLDY    59  51  75 W7        30.25S
TARBORO*       FAIR      52  50  92 CALM      30.26R
GOLDSBORO      CLEAR     57  48  73 CALM      30.23S
WASHINGTON       N/A     59  50  72 SW3       30.25S
GREENVILLE     CLEAR     57  50  77 SW5       30.26R
NEW BERN       CLEAR     57  52  83 CALM      30.26S
WILMINGTON     CLEAR     56  53  90 CALM      30.25S
$$

VAZ048-040700-
ELSEWHERE

CITY           SKY/WX    TMP DP  RH WIND       PRES   REMARKS
HARRISBURG PA  PTCLDY    58  49  72 SE3       30.14S
BALTIMORE      CLEAR     60  44  55 CALM      30.16S
ANNAPOLIS      CLEAR     58  52  80 CALM      30.16S
ANDREWS AFB    CLEAR     59  45  59 SW6       30.16S
PHILADELPHIA   CLEAR     58  49  72 CALM      30.18R
HENDERSON NC   CLEAR     57  47  67 S6        30.24R
GREENSBORO     MOCLDY    62  48  60 S8        30.22R
ROCKY MOUNT    CLEAR     56  47  71 S3        30.24S
$$

VAZ100-040700-
MARINE

STATION/POSITION TIME  TEMP    WIND        PRES    WAVE   SWELL
                       AIR SEA DIR/SP/G            HT/PER HT/PER
                 (UTC) (F)     (DEG/KT/KT) (MB)    (FT/S) (FT/S)
BRANDYWINE LGT   0506   63 54  220/ 11/ 12 1021.8R
CAPE MAY NJ      0512   55 60  110/  3/  5 1021.6R
LEWES DE         0512   62 55  230/  6/  8 1021.7R
15NM E FENWICK I 0550   57 52              1022.1R   4/10
OCEAN-CITY-INLET 0512   57 52  260/  3/  3 1021.9R
WACHAPREAGUE VA  0500   61 64  220/  4/  5 1022.5R
THOMAS POINT MD  0600   63 56  180/  7/  8 1022.1S
GOOSES REEF MD   0600   64 59                N/A     1
COVE POINT MD    0500   67     250/ 12/ 13 1022.1R
SOLOMONS ISLAND  0512      60                N/A
BISHOPS HEAD MD  0512   64 65  190/ 10/ 12 1021.5R
PINEY POINT MD   0500          190/  3/  3   N/A
CAMBRIDGE MD     0512   62 61  180/  3/  4 1021.6R
LEWISETTA VA     0500   63 64              1021.8R
RAPPAHANNOCK LGT 0500          200/ 12/ 13 1022.9R
YORK RVR RNG VA  0512   65     230/  8/  9 1022.0R
YORKTOWN VA      0512   64 60  220/  9/ 10 1022.3R
JAMESTOWN VA     0600   64 63  230/  8/ 12 1022.0R
DOMINION TERM VA 0500   64     210/  8/  9 1023.0R
KIPTOPEKE VA     0500      64  190/  6/  6   N/A
CHES BAY BRIDGE  0512   65 59  200/ 12/ 13 1022.5R
CAPE HENRY VA    0500   65     200/  9/ 12 1021.7R
CHESAPEAKE LGHT  0500   64     220/ 18/ 19 1023.3R
WILLOUBY STN VA  0500   67     210/ 14/ 15 1023.4R
S CRANEY ISL VA  0512          210/  7/ 12 1023.1R
CAPE HENRY BUOY  0528      57                N/A     3/10   2/11
1ST LANDING BUOY 0600      60              1048.8    1/ 4
CAPE CHARLES BUO 0526      56                N/A     2/11   2/11
OFFSHORE WE BUOY 0511      52                N/A     3/11   3/11
64NM E OF VA BCH 0550   63 61  240/ 12/ 16 1023.1R   5/10   5/10
DUCK PIER NC     0512   65 55  210/  8/ 10 1022.8R
44056 DUCK FRF   0511      55                N/A     4/10   2/11
OREGON INLET NC  0512   64 62  230/  7/  8 1024.0R
HATTERAS NC      0512   64 62  240/  5/  7 1023.8S
DIAMOND SHLS NC  0550   63 60  260/  6/  6 1024.3F   4/11   3/11
CAPE LOOKOUT NC  0600   67     230/  6/  7 1024.2F
$$


USA.gov is the U.S. government's official web portal to all federal, state and local government web resources and services.